Wetterdaten: Samstag, 30.11.2013
Datum Zeit Temperatur Luftfeuchte Luftdruck Regen Wind Richtung Richtung Taupunkt Windchill Windben
30.11.2013 00:00 0,5 C 82 % 1016,4 hPa 0,0 l/m 7,7 km/h (2 Bft) S 180 -2,2 C -3,2 C 7,9 km/h (2 Bft)
30.11.2013 00:09 0,6 C 81 % 1016,1 hPa 0,0 l/m 7,6 km/h (2 Bft) S-SO 157 -2,3 C -2,9 C 7,6 km/h (2 Bft)
30.11.2013 00:10 0,6 C 81 % 1016,1 hPa 0,0 l/m 7,6 km/h (2 Bft) S-SO 157 -2,3 C -2,9 C 7,6 km/h (2 Bft)
30.11.2013 00:20 0,7 C 82 % 1016,1 hPa 0,0 l/m 7,6 km/h (2 Bft) S 180 -2,0 C -2,7 C 12,7 km/h (3 Bft)
30.11.2013 00:25 0,7 C 81 % 1015,6 hPa 0,0 l/m 8,2 km/h (2 Bft) S-SO 157 -2,2 C -3,4 C 10,3 km/h (2 Bft)
30.11.2013 00:31 0,7 C 81 % 1015,6 hPa 0,0 l/m 8,4 km/h (2 Bft) S-SO 157 -2,2 C -3,7 C 7,9 km/h (2 Bft)
30.11.2013 00:35 0,7 C 81 % 1015,6 hPa 0,0 l/m 9,0 km/h (2 Bft) SO 135 -2,2 C -4,4 C 15,4 km/h (3 Bft)
30.11.2013 00:42 0,7 C 81 % 1015,6 hPa 0,0 l/m 8,5 km/h (2 Bft) S 180 -2,2 C -3,9 C 8,4 km/h (2 Bft)
30.11.2013 00:45 0,6 C 81 % 1015,4 hPa 0,0 l/m 7,9 km/h (2 Bft) S 180 -2,3 C -3,2 C 16,7 km/h (3 Bft)
30.11.2013 00:53 0,7 C 82 % 1015,4 hPa 0,0 l/m 7,2 km/h (2 Bft) S 180 -2,0 C -2,2 C 10,3 km/h (2 Bft)
30.11.2013 00:55 0,7 C 82 % 1015,4 hPa 0,0 l/m 7,2 km/h (2 Bft) S 180 -2,0 C -2,2 C 10,3 km/h (2 Bft)
30.11.2013 01:04 0,7 C 82 % 1014,9 hPa 0,0 l/m 6,8 km/h (2 Bft) S 180 -2,0 C -1,5 C 7,2 km/h (2 Bft)
30.11.2013 01:05 0,7 C 82 % 1014,9 hPa 0,0 l/m 6,8 km/h (2 Bft) S 180 -2,0 C -1,5 C 7,2 km/h (2 Bft)
30.11.2013 01:15 0,8 C 83 % 1014,9 hPa 0,0 l/m 7,6 km/h (2 Bft) S 180 -1,8 C -2,6 C 10,3 km/h (2 Bft)
30.11.2013 01:20 0,8 C 83 % 1014,9 hPa 0,0 l/m 7,2 km/h (2 Bft) SO 135 -1,8 C -2,0 C 6,9 km/h (2 Bft)
30.11.2013 01:26 0,9 C 83 % 1014,9 hPa 0,0 l/m 7,4 km/h (2 Bft) S 180 -1,7 C -2,3 C 6,6 km/h (2 Bft)
30.11.2013 01:30 0,8 C 83 % 1014,9 hPa 0,0 l/m 7,4 km/h (2 Bft) S 180 -1,8 C -2,3 C 9,8 km/h (2 Bft)
30.11.2013 01:37 0,7 C 84 % 1014,9 hPa 0,0 l/m 7,1 km/h (2 Bft) S 180 -1,7 C -2,0 C 7,4 km/h (2 Bft)
30.11.2013 01:40 0,7 C 85 % 1014,9 hPa 0,0 l/m 6,6 km/h (2 Bft) O-SO 112 -1,5 C -1,5 C 7,2 km/h (2 Bft)
30.11.2013 01:48 0,5 C 87 % 1014,9 hPa 0,0 l/m 6,4 km/h (2 Bft) O-SO 112 -1,4 C -1,5 C 7,9 km/h (2 Bft)
30.11.2013 01:50 0,5 C 87 % 1014,9 hPa 0,0 l/m 6,4 km/h (2 Bft) O-SO 112 -1,4 C -1,5 C 7,9 km/h (2 Bft)
30.11.2013 01:59 0,5 C 89 % 1014,9 hPa 0,0 l/m 6,1 km/h (2 Bft) SO 135 -1,1 C -1,5 C 8,4 km/h (2 Bft)
30.11.2013 02:00 0,5 C 89 % 1014,9 hPa 0,0 l/m 6,1 km/h (2 Bft) SO 135 -1,1 C -1,5 C 8,4 km/h (2 Bft)
30.11.2013 02:10 0,6 C 90 % 1014,9 hPa 0,0 l/m 5,3 km/h (1 Bft) O-SO 112 -0,8 C -1,2 C 3,7 km/h (1 Bft)
30.11.2013 02:13 0,5 C 91 % 1014,9 hPa 0,0 l/m 5,1 km/h (1 Bft) S-SO 157 -0,8 C -1,2 C 6,4 km/h (2 Bft)
30.11.2013 02:19 0,6 C 91 % 1014,9 hPa 0,0 l/m 5,0 km/h (1 Bft) S 180 -0,7 C -1,2 C 7,4 km/h (2 Bft)
30.11.2013 02:20 0,6 C 91 % 1014,9 hPa 0,0 l/m 5,0 km/h (1 Bft) S 180 -0,7 C -1,2 C 7,4 km/h (2 Bft)
30.11.2013 02:30 0,5 C 92 % 1014,8 hPa 0,0 l/m 4,7 km/h (1 Bft) S 180 -0,6 C -1,0 C 3,9 km/h (1 Bft)
30.11.2013 02:35 0,5 C 92 % 1014,8 hPa 0,0 l/m 4,2 km/h (1 Bft) O-SO 112 -0,6 C -0,7 C 5,1 km/h (1 Bft)
30.11.2013 02:41 0,5 C 93 % 1014,8 hPa 0,0 l/m 4,0 km/h (1 Bft) SO 135 -0,5 C -0,7 C 6,9 km/h (2 Bft)
30.11.2013 02:45 0,6 C 93 % 1014,6 hPa 0,0 l/m 4,0 km/h (1 Bft) S-SO 157 -0,4 C -0,7 C 3,2 km/h (1 Bft)
30.11.2013 02:52 0,6 C 94 % 1014,6 hPa 0,0 l/m 4,5 km/h (1 Bft) SO 135 -0,3 C -0,9 C 7,2 km/h (2 Bft)
30.11.2013 02:55 0,6 C 94 % 1014,6 hPa 0,0 l/m 4,5 km/h (1 Bft) SO 135 -0,3 C -0,9 C 7,2 km/h (2 Bft)
30.11.2013 03:03 0,5 C 94 % 1014,5 hPa 0,0 l/m 4,5 km/h (1 Bft) S 180 -0,4 C -0,9 C 7,4 km/h (2 Bft)
30.11.2013 03:05 0,5 C 94 % 1014,5 hPa 0,0 l/m 4,5 km/h (1 Bft) S 180 -0,4 C -0,9 C 7,4 km/h (2 Bft)
30.11.2013 03:14 0,5 C 94 % 1014,5 hPa 0,0 l/m 4,8 km/h (1 Bft) S-SO 157 -0,4 C -1,1 C 3,4 km/h (1 Bft)
30.11.2013 03:15 0,5 C 94 % 1014,5 hPa 0,0 l/m 4,8 km/h (1 Bft) S-SO 157 -0,4 C -1,1 C 3,4 km/h (1 Bft)
30.11.2013 03:25 0,4 C 95 % 1014,7 hPa 0,0 l/m 3,9 km/h (1 Bft) S 180 -0,3 C -0,6 C 4,7 km/h (1 Bft)
30.11.2013 03:30 0,4 C 95 % 1014,7 hPa 0,0 l/m 3,7 km/h (1 Bft) S 180 -0,3 C -0,6 C 4,8 km/h (1 Bft)
30.11.2013 03:36 0,3 C 95 % 1014,7 hPa 0,0 l/m 3,5 km/h (1 Bft) S 180 -0,4 C -0,5 C 8,2 km/h (2 Bft)
30.11.2013 03:40 0,3 C 95 % 1014,7 hPa 0,0 l/m 3,5 km/h (1 Bft) S 180 -0,4 C -0,5 C 5,8 km/h (2 Bft)
30.11.2013 03:47 0,3 C 95 % 1014,6 hPa 0,0 l/m 2,9 km/h (1 Bft) S 180 -0,4 C -0,1 C 3,1 km/h (1 Bft)
30.11.2013 03:50 0,3 C 95 % 1014,6 hPa 0,0 l/m 2,9 km/h (1 Bft) S 180 -0,4 C -0,1 C 3,1 km/h (1 Bft)
30.11.2013 03:58 0,3 C 95 % 1014,6 hPa 0,0 l/m 3,2 km/h (1 Bft) S-SW 202 -0,4 C -0,3 C 5,8 km/h (2 Bft)
30.11.2013 04:00 0,3 C 95 % 1014,6 hPa 0,0 l/m 3,2 km/h (1 Bft) S-SW 202 -0,4 C -0,3 C 5,8 km/h (2 Bft)
30.11.2013 04:09 0,4 C 96 % 1014,6 hPa 0,0 l/m 5,0 km/h (1 Bft) SW 225 -0,2 C -1,3 C 4,2 km/h (1 Bft)
30.11.2013 04:10 0,4 C 96 % 1014,6 hPa 0,0 l/m 5,0 km/h (1 Bft) SW 225 -0,2 C -1,3 C 4,2 km/h (1 Bft)
30.11.2013 04:20 0,4 C 96 % 1014,6 hPa 0,0 l/m 4,2 km/h (1 Bft) S 180 -0,2 C -0,9 C 0,0 km/h (0 Bft)
30.11.2013 04:25 0,3 C 96 % 1014,6 hPa 0,0 l/m 2,1 km/h (1 Bft) S 180 -0,3 C 0,3 C 0,0 km/h (0 Bft)
30.11.2013 04:31 0,3 C 96 % 1014,6 hPa 0,0 l/m 0,0 km/h (0 Bft) S-SW 202 -0,3 C 0,3 C 0,0 km/h (0 Bft)
30.11.2013 04:35 0,3 C 96 % 1014,6 hPa 0,0 l/m 0,0 km/h (0 Bft) S 180 -0,3 C 0,3 C 0,0 km/h (0 Bft)
30.11.2013 04:42 0,3 C 96 % 1014,6 hPa 0,0 l/m 0,0 km/h (0 Bft) S 180 -0,3 C 0,3 C 0,0 km/h (0 Bft)
30.11.2013 04:45 0,3 C 96 % 1014,8 hPa 0,0 l/m 0,0 km/h (0 Bft) S 180 -0,3 C 0,3 C 0,0 km/h (0 Bft)
30.11.2013 04:53 0,3 C 96 % 1014,8 hPa 0,0 l/m 0,0 km/h (0 Bft) S 180 -0,3 C 0,3 C 0,0 km/h (0 Bft)
30.11.2013 04:55 0,3 C 96 % 1014,8 hPa 0,0 l/m 0,0 km/h (0 Bft) S 180 -0,3 C 0,3 C 0,0 km/h (0 Bft)
30.11.2013 05:04 0,2 C 96 % 1015,1 hPa 0,0 l/m 0,0 km/h (0 Bft) S-SW 202 -0,4 C 0,2 C 0,0 km/h (0 Bft)
30.11.2013 05:05 0,2 C 96 % 1015,1 hPa 0,0 l/m 0,0 km/h (0 Bft) S-SW 202 -0,4 C 0,2 C 0,0 km/h (0 Bft)
30.11.2013 05:15 0,2 C 96 % 1015,1 hPa 0,0 l/m 0,0 km/h (0 Bft) W-SW 247 -0,4 C 0,2 C 0,0 km/h (0 Bft)
30.11.2013 05:20 0,2 C 96 % 1015,1 hPa 0,0 l/m 0,0 km/h (0 Bft) S-SW 202 -0,4 C 0,2 C 0,0 km/h (0 Bft)
30.11.2013 05:26 0,2 C 96 % 1015,4 hPa 0,0 l/m 0,0 km/h (0 Bft) S 180 -0,4 C 0,2 C 0,0 km/h (0 Bft)
30.11.2013 05:30 0,1 C 96 % 1015,4 hPa 0,0 l/m 0,0 km/h (0 Bft) S 180 -0,5 C 0,2 C 0,0 km/h (0 Bft)
30.11.2013 05:37 0,1 C 96 % 1015,4 hPa 0,0 l/m 0,0 km/h (0 Bft) S 180 -0,5 C 0,2 C 0,0 km/h (0 Bft)
30.11.2013 05:40 0,1 C 96 % 1015,4 hPa 0,0 l/m 0,0 km/h (0 Bft) S 180 -0,5 C 0,2 C 0,0 km/h (0 Bft)
30.11.2013 05:48 0,1 C 96 % 1015,6 hPa 0,0 l/m 0,0 km/h (0 Bft) S-SO 157 -0,5 C 0,2 C 0,0 km/h (0 Bft)
30.11.2013 05:50 0,1 C 96 % 1015,6 hPa 0,0 l/m 0,0 km/h (0 Bft) S-SO 157 -0,5 C 0,2 C 0,0 km/h (0 Bft)
30.11.2013 05:59 0,0 C 96 % 1015,6 hPa 0,0 l/m 0,0 km/h (0 Bft) S-SO 157 -0,6 C 0,1 C 0,0 km/h (0 Bft)
30.11.2013 06:00 0,0 C 96 % 1015,6 hPa 0,0 l/m 0,0 km/h (0 Bft) S-SO 157 -0,6 C 0,1 C 0,0 km/h (0 Bft)
30.11.2013 06:10 0,0 C 96 % 1015,8 hPa 0,0 l/m 0,0 km/h (0 Bft) S 180 -0,6 C 0,1 C 0,0 km/h (0 Bft)
30.11.2013 06:15 0,0 C 96 % 1015,8 hPa 0,0 l/m 0,0 km/h (0 Bft) S 180 -0,6 C 0,1 C 0,0 km/h (0 Bft)
30.11.2013 06:21 0,0 C 96 % 1015,8 hPa 0,0 l/m 0,0 km/h (0 Bft) S 180 -0,6 C 0,1 C 0,0 km/h (0 Bft)
30.11.2013 06:25 0,0 C 96 % 1015,9 hPa 0,0 l/m 0,0 km/h (0 Bft) S 180 -0,6 C 0,1 C 0,0 km/h (0 Bft)
30.11.2013 06:32 0,0 C 96 % 1015,9 hPa 0,0 l/m 0,0 km/h (0 Bft) S 180 -0,6 C 0,1 C 0,0 km/h (0 Bft)
30.11.2013 06:35 0,0 C 96 % 1015,9 hPa 0,0 l/m 0,0 km/h (0 Bft) S 180 -0,6 C 0,0 C 0,0 km/h (0 Bft)
30.11.2013 06:43 0,0 C 96 % 1016,1 hPa 0,0 l/m 0,0 km/h (0 Bft) S 180 -0,6 C 0,0 C 0,0 km/h (0 Bft)
30.11.2013 06:45 0,0 C 96 % 1016,1 hPa 0,0 l/m 0,0 km/h (0 Bft) S 180 -0,6 C 0,0 C 0,0 km/h (0 Bft)
30.11.2013 06:54 -0,1 C 96 % 1016,1 hPa 0,0 l/m 0,0 km/h (0 Bft) S 180 -0,7 C 0,0 C 0,0 km/h (0 Bft)
30.11.2013 06:55 -0,1 C 96 % 1016,1 hPa 0,0 l/m 0,0 km/h (0 Bft) S 180 -0,7 C 0,0 C 0,0 km/h (0 Bft)
30.11.2013 07:05 -0,2 C 96 % 1016,2 hPa 0,0 l/m 0,0 km/h (0 Bft) S 180 -0,8 C 0,0 C 0,0 km/h (0 Bft)
30.11.2013 07:10 -0,2 C 96 % 1016,2 hPa 0,0 l/m 0,0 km/h (0 Bft) O-NO 67 -0,8 C -0,2 C 0,0 km/h (0 Bft)
30.11.2013 07:15 -0,2 C 96 % 1016,2 hPa 0,0 l/m 0,0 km/h (0 Bft) O-NO 67 -0,8 C -0,2 C 0,0 km/h (0 Bft)
30.11.2013 07:20 -0,3 C 96 % 1016,2 hPa 0,0 l/m 0,0 km/h (0 Bft) O-NO 67 -0,9 C -0,2 C 0,0 km/h (0 Bft)
30.11.2013 07:26 -0,3 C 96 % 1016,2 hPa 0,0 l/m 0,0 km/h (0 Bft) O-NO 67 -0,9 C -0,3 C 0,0 km/h (0 Bft)
30.11.2013 07:30 -0,4 C 96 % 1016,2 hPa 0,0 l/m 0,0 km/h (0 Bft) O-NO 67 -1,0 C -0,3 C 0,0 km/h (0 Bft)
30.11.2013 07:37 -0,5 C 96 % 1016,2 hPa 0,0 l/m 0,0 km/h (0 Bft) O-NO 67 -1,1 C -0,4 C 0,0 km/h (0 Bft)
30.11.2013 07:40 -0,5 C 96 % 1016,2 hPa 0,0 l/m 0,0 km/h (0 Bft) O-NO 67 -1,1 C -0,4 C 0,0 km/h (0 Bft)
30.11.2013 07:48 -0,8 C 96 % 1016,3 hPa 0,0 l/m 0,0 km/h (0 Bft) O-NO 67 -1,4 C -0,6 C 0,0 km/h (0 Bft)
30.11.2013 07:50 -0,8 C 96 % 1016,3 hPa 0,0 l/m 0,0 km/h (0 Bft) O-NO 67 -1,4 C -0,6 C 0,0 km/h (0 Bft)
30.11.2013 07:59 -0,8 C 96 % 1016,3 hPa 0,0 l/m 0,0 km/h (0 Bft) O-NO 67 -1,4 C -0,8 C 0,0 km/h (0 Bft)
30.11.2013 08:00 -0,8 C 96 % 1016,3 hPa 0,0 l/m 0,0 km/h (0 Bft) O-NO 67 -1,4 C -0,8 C 0,0 km/h (0 Bft)
30.11.2013 08:10 -1,0 C 96 % 1016,6 hPa 0,0 l/m 0,0 km/h (0 Bft) O-NO 67 -1,6 C -0,9 C 0,0 km/h (0 Bft)
30.11.2013 08:15 -1,1 C 96 % 1016,6 hPa 0,0 l/m 0,0 km/h (0 Bft) O-NO 67 -1,7 C -1,0 C 0,0 km/h (0 Bft)
30.11.2013 08:21 -1,1 C 96 % 1016,6 hPa 0,0 l/m 0,0 km/h (0 Bft) O-NO 67 -1,7 C -1,0 C 0,0 km/h (0 Bft)
30.11.2013 08:25 -1,1 C 96 % 1016,7 hPa 0,0 l/m 0,0 km/h (0 Bft) O-NO 67 -1,7 C -1,0 C 0,0 km/h (0 Bft)
30.11.2013 08:32 -1,2 C 96 % 1016,7 hPa 0,0 l/m 0,0 km/h (0 Bft) O-NO 67 -1,8 C -1,1 C 0,0 km/h (0 Bft)
30.11.2013 08:35 -1,2 C 96 % 1016,7 hPa 0,0 l/m 0,0 km/h (0 Bft) O-NO 67 -1,8 C -1,1 C 0,0 km/h (0 Bft)
30.11.2013 08:43 -1,1 C 96 % 1016,8 hPa 0,0 l/m 0,0 km/h (0 Bft) O-NO 67 -1,7 C -1,1 C 0,0 km/h (0 Bft)
30.11.2013 08:45 -1,1 C 96 % 1016,8 hPa 0,0 l/m 0,0 km/h (0 Bft) O-NO 67 -1,7 C -1,1 C 0,0 km/h (0 Bft)
30.11.2013 08:54 -1,1 C 95 % 1016,8 hPa 0,0 l/m 0,0 km/h (0 Bft) O-NO 67 -1,8 C -1,1 C 0,0 km/h (0 Bft)
30.11.2013 08:55 -1,1 C 95 % 1016,8 hPa 0,0 l/m 0,0 km/h (0 Bft) O-NO 67 -1,8 C -1,1 C 0,0 km/h (0 Bft)
30.11.2013 09:05 -1,0 C 95 % 1017,2 hPa 0,0 l/m 0,0 km/h (0 Bft) O-NO 67 -1,7 C -1,0 C 0,0 km/h (0 Bft)
30.11.2013 09:10 -0,9 C 95 % 1017,2 hPa 0,0 l/m 0,0 km/h (0 Bft) O-NO 67 -1,6 C -0,9 C 0,0 km/h (0 Bft)
30.11.2013 09:16 -0,6 C 95 % 1017,2 hPa 0,0 l/m 0,0 km/h (0 Bft) O-NO 67 -1,3 C -0,7 C 0,0 km/h (0 Bft)
30.11.2013 09:20 -0,5 C 95 % 1017,2 hPa 0,0 l/m 0,0 km/h (0 Bft) O-NO 67 -1,2 C -0,6 C 0,0 km/h (0 Bft)
30.11.2013 09:27 -0,3 C 95 % 1017,6 hPa 0,0 l/m 0,0 km/h (0 Bft) O-NO 67 -1,0 C -0,4 C 0,0 km/h (0 Bft)
30.11.2013 09:30 -0,2 C 95 % 1017,6 hPa 0,0 l/m 0,0 km/h (0 Bft) O-NO 67 -0,9 C -0,4 C 0,0 km/h (0 Bft)
30.11.2013 09:38 0,2 C 96 % 1017,6 hPa 0,0 l/m 0,0 km/h (0 Bft) O-NO 67 -0,4 C 0,1 C 0,0 km/h (0 Bft)
30.11.2013 09:40 0,2 C 96 % 1017,6 hPa 0,0 l/m 0,0 km/h (0 Bft) O-NO 67 -0,4 C 0,1 C 0,0 km/h (0 Bft)
30.11.2013 09:49 0,3 C 96 % 1018,1 hPa 0,0 l/m 0,0 km/h (0 Bft) O-NO 67 -0,3 C 0,4 C 0,0 km/h (0 Bft)
30.11.2013 09:50 0,3 C 96 % 1018,1 hPa 0,0 l/m 0,0 km/h (0 Bft) O-NO 67 -0,3 C 0,4 C 0,0 km/h (0 Bft)
30.11.2013 10:00 0,3 C 96 % 1018,1 hPa 0,0 l/m 0,0 km/h (0 Bft) O-NO 67 -0,3 C 0,5 C 0,0 km/h (0 Bft)
30.11.2013 10:05 0,4 C 96 % 1018,2 hPa 0,0 l/m 0,0 km/h (0 Bft) O-NO 67 -0,2 C 0,5 C 0,0 km/h (0 Bft)
30.11.2013 10:11 0,5 C 96 % 1018,2 hPa 0,0 l/m 0,0 km/h (0 Bft) S-SW 202 -0,1 C 0,6 C 0,0 km/h (0 Bft)
30.11.2013 10:15 0,5 C 96 % 1018,2 hPa 0,0 l/m 0,0 km/h (0 Bft) S-SW 202 -0,1 C 0,6 C 0,0 km/h (0 Bft)
30.11.2013 10:22 0,6 C 96 % 1018,2 hPa 0,0 l/m 0,0 km/h (0 Bft) S-SW 202 0,0 C 0,7 C 0,0 km/h (0 Bft)
30.11.2013 10:25 0,6 C 96 % 1018,7 hPa 0,0 l/m 0,0 km/h (0 Bft) S-SW 202 0,0 C 0,7 C 0,0 km/h (0 Bft)
30.11.2013 10:33 0,7 C 95 % 1018,7 hPa 0,0 l/m 0,0 km/h (0 Bft) S-SW 202 -0,0 C 0,7 C 0,0 km/h (0 Bft)
30.11.2013 10:35 0,7 C 95 % 1018,7 hPa 0,0 l/m 0,0 km/h (0 Bft) S-SW 202 -0,0 C 0,7 C 0,0 km/h (0 Bft)
30.11.2013 10:44 1,1 C 95 % 1018,8 hPa 0,0 l/m 0,0 km/h (0 Bft) S-SW 202 0,4 C 0,9 C 0,0 km/h (0 Bft)
30.11.2013 10:45 1,1 C 95 % 1018,8 hPa 0,0 l/m 0,0 km/h (0 Bft) S-SW 202 0,4 C 0,9 C 0,0 km/h (0 Bft)
30.11.2013 10:55 1,4 C 95 % 1018,8 hPa 0,0 l/m 0,0 km/h (0 Bft) S-SW 202 0,7 C 1,2 C 0,0 km/h (0 Bft)
30.11.2013 11:00 1,4 C 95 % 1018,8 hPa 0,0 l/m 0,0 km/h (0 Bft) S-SW 202 0,7 C 1,5 C 0,0 km/h (0 Bft)
30.11.2013 11:06 1,7 C 95 % 1018,8 hPa 0,0 l/m 0,0 km/h (0 Bft) S 180 1,0 C 1,8 C 0,0 km/h (0 Bft)
30.11.2013 11:10 1,9 C 95 % 1018,8 hPa 0,0 l/m 0,0 km/h (0 Bft) S-SW 202 1,2 C 2,0 C 0,0 km/h (0 Bft)
30.11.2013 11:17 2,0 C 95 % 1018,8 hPa 0,0 l/m 0,0 km/h (0 Bft) S-SW 202 1,3 C 2,5 C 0,0 km/h (0 Bft)
30.11.2013 11:20 1,9 C 95 % 1018,8 hPa 0,0 l/m 0,0 km/h (0 Bft) S-SW 202 1,2 C 2,8 C 0,0 km/h (0 Bft)
30.11.2013 11:28 1,6 C 94 % 1018,9 hPa 0,0 l/m 0,0 km/h (0 Bft) S-SW 202 0,7 C 3,0 C 0,0 km/h (0 Bft)
30.11.2013 11:30 1,6 C 94 % 1018,9 hPa 0,0 l/m 0,0 km/h (0 Bft) S-SW 202 0,7 C 3,0 C 0,0 km/h (0 Bft)
30.11.2013 11:39 1,5 C 94 % 1018,9 hPa 0,0 l/m 0,0 km/h (0 Bft) W 270 0,6 C 2,7 C 0,0 km/h (0 Bft)
30.11.2013 11:40 1,5 C 94 % 1018,9 hPa 0,0 l/m 0,0 km/h (0 Bft) W 270 0,6 C 2,7 C 0,0 km/h (0 Bft)
30.11.2013 11:50 2,3 C 94 % 1019,1 hPa 0,0 l/m 0,0 km/h (0 Bft) W 270 1,4 C 3,3 C 0,0 km/h (0 Bft)
30.11.2013 11:55 2,4 C 94 % 1019,1 hPa 0,0 l/m 0,0 km/h (0 Bft) W 270 1,5 C 3,9 C 0,0 km/h (0 Bft)
30.11.2013 12:01 2,3 C 93 % 1019,1 hPa 0,0 l/m 0,0 km/h (0 Bft) W 270 1,3 C 4,0 C 0,0 km/h (0 Bft)
30.11.2013 12:05 2,4 C 93 % 1019,0 hPa 0,0 l/m 0,0 km/h (0 Bft) W 270 1,4 C 4,2 C 0,0 km/h (0 Bft)
30.11.2013 12:11 2,8 C 93 % 1019,0 hPa 0,0 l/m 0,0 km/h (0 Bft) W 270 1,8 C 4,3 C 0,0 km/h (0 Bft)
30.11.2013 12:15 2,9 C 93 % 1019,0 hPa 0,0 l/m 0,2 km/h (0 Bft) W 270 1,9 C 4,3 C 0,0 km/h (0 Bft)
30.11.2013 12:22 2,5 C 92 % 1019,1 hPa 0,0 l/m 0,2 km/h (0 Bft) W 270 1,3 C 4,5 C 0,0 km/h (0 Bft)
30.11.2013 12:25 2,5 C 92 % 1019,1 hPa 0,0 l/m 0,2 km/h (0 Bft) W 270 1,3 C 4,5 C 0,0 km/h (0 Bft)
30.11.2013 12:33 3,2 C 91 % 1019,1 hPa 0,0 l/m 0,0 km/h (0 Bft) S-SW 202 1,9 C 4,7 C 0,0 km/h (0 Bft)
30.11.2013 12:35 3,2 C 91 % 1019,1 hPa 0,0 l/m 0,0 km/h (0 Bft) S-SW 202 1,9 C 4,7 C 0,0 km/h (0 Bft)
30.11.2013 12:44 2,6 C 91 % 1019,4 hPa 0,0 l/m 0,0 km/h (0 Bft) W-SW 247 1,3 C 4,4 C 0,0 km/h (0 Bft)
30.11.2013 12:45 2,6 C 91 % 1019,4 hPa 0,0 l/m 0,0 km/h (0 Bft) W-SW 247 1,3 C 4,4 C 0,0 km/h (0 Bft)
30.11.2013 12:55 1,8 C 91 % 1019,4 hPa 0,0 l/m 0,0 km/h (0 Bft) W-SW 247 0,5 C 4,4 C 0,0 km/h (0 Bft)
30.11.2013 13:00 1,2 C 90 % 1019,4 hPa 0,0 l/m 0,0 km/h (0 Bft) S-SW 202 -0,3 C 3,8 C 0,0 km/h (0 Bft)
30.11.2013 13:06 0,5 C 90 % 1019,3 hPa 0,0 l/m 0,0 km/h (0 Bft) S-SW 202 -0,9 C 2,6 C 0,0 km/h (0 Bft)
30.11.2013 13:10 0,6 C 90 % 1019,3 hPa 0,0 l/m 0,0 km/h (0 Bft) O-NO 67 -0,8 C 2,1 C 0,0 km/h (0 Bft)
30.11.2013 13:17 1,6 C 91 % 1019,3 hPa 0,0 l/m 0,0 km/h (0 Bft) NO 45 0,3 C 2,5 C 0,0 km/h (0 Bft)
30.11.2013 13:20 1,6 C 91 % 1019,3 hPa 0,0 l/m 0,0 km/h (0 Bft) NO 45 0,3 C 2,5 C 0,0 km/h (0 Bft)
30.11.2013 13:28 1,7 C 91 % 1019,4 hPa 0,0 l/m 0,0 km/h (0 Bft) NO 45 0,4 C 3,5 C 0,0 km/h (0 Bft)
30.11.2013 13:30 1,7 C 91 % 1019,4 hPa 0,0 l/m 0,0 km/h (0 Bft) NO 45 0,4 C 3,5 C 0,0 km/h (0 Bft)
30.11.2013 13:39 1,5 C 91 % 1019,4 hPa 0,0 l/m 0,0 km/h (0 Bft) NO 45 0,2 C 3,6 C 0,0 km/h (0 Bft)
30.11.2013 13:40 1,5 C 91 % 1019,4 hPa 0,0 l/m 0,0 km/h (0 Bft) NO 45 0,2 C 3,6 C 0,0 km/h (0 Bft)
30.11.2013 13:50 2,1 C 91 % 1019,2 hPa 0,0 l/m 0,0 km/h (0 Bft) NO 45 0,8 C 4,5 C 0,0 km/h (0 Bft)
30.11.2013 13:55 2,6 C 92 % 1019,2 hPa 0,0 l/m 0,0 km/h (0 Bft) W 270 1,4 C 4,8 C 0,0 km/h (0 Bft)
30.11.2013 14:01 2,2 C 92 % 1019,2 hPa 0,0 l/m 0,0 km/h (0 Bft) N-NO 22 1,0 C 4,8 C 0,0 km/h (0 Bft)
30.11.2013 14:05 1,9 C 92 % 1019,2 hPa 0,0 l/m 0,0 km/h (0 Bft) W-NW 292 0,7 C 4,5 C 0,0 km/h (0 Bft)
30.11.2013 14:12 1,2 C 91 % 1019,2 hPa 0,0 l/m 0,0 km/h (0 Bft) N-NW 337 -0,1 C 3,6 C 0,0 km/h (0 Bft)
30.11.2013 14:15 1,2 C 91 % 1019,2 hPa 0,0 l/m 0,0 km/h (0 Bft) N-NW 337 -0,1 C 3,6 C 0,0 km/h (0 Bft)
30.11.2013 14:23 1,0 C 91 % 1019,4 hPa 0,0 l/m 0,0 km/h (0 Bft) W-SW 247 -0,3 C 3,1 C 0,0 km/h (0 Bft)
30.11.2013 14:25 1,0 C 91 % 1019,4 hPa 0,0 l/m 0,0 km/h (0 Bft) W-SW 247 -0,3 C 3,1 C 0,0 km/h (0 Bft)
30.11.2013 14:34 1,8 C 91 % 1019,4 hPa 0,0 l/m 0,0 km/h (0 Bft) W-SW 247 0,5 C 6,3 C 0,0 km/h (0 Bft)
30.11.2013 14:35 1,8 C 91 % 1019,4 hPa 0,0 l/m 0,0 km/h (0 Bft) W-SW 247 0,5 C 6,3 C 0,0 km/h (0 Bft)
30.11.2013 14:45 0,9 C 91 % 1019,6 hPa 0,0 l/m 0,0 km/h (0 Bft) W 270 -0,4 C 4,7 C 0,0 km/h (0 Bft)
30.11.2013 14:50 0,2 C 91 % 1019,6 hPa 0,0 l/m 0,0 km/h (0 Bft) SW 225 -1,1 C 3,5 C 0,0 km/h (0 Bft)
30.11.2013 14:56 -0,5 C 91 % 1019,6 hPa 0,0 l/m 0,0 km/h (0 Bft) O-NO 67 -1,8 C 1,8 C 0,0 km/h (0 Bft)
30.11.2013 15:00 -0,7 C 91 % 1019,6 hPa 0,0 l/m 0,0 km/h (0 Bft) O 90 -2,0 C 0,9 C 0,0 km/h (0 Bft)
30.11.2013 15:07 -0,9 C 91 % 1019,6 hPa 0,0 l/m 0,0 km/h (0 Bft) O 90 -2,2 C 0,1 C 0,0 km/h (0 Bft)
30.11.2013 15:10 -1,2 C 91 % 1019,6 hPa 0,0 l/m 0,0 km/h (0 Bft) O 90 -2,5 C -0,5 C 0,0 km/h (0 Bft)
30.11.2013 15:18 -1,1 C 92 % 1019,6 hPa 0,0 l/m 0,0 km/h (0 Bft) NO 45 -2,2 C -1,5 C 0,0 km/h (0 Bft)
30.11.2013 15:20 -1,1 C 92 % 1019,6 hPa 0,0 l/m 0,0 km/h (0 Bft) NO 45 -2,2 C -1,5 C 0,0 km/h (0 Bft)
30.11.2013 15:29 -1,5 C 93 % 1020,0 hPa 0,0 l/m 0,0 km/h (0 Bft) O-NO 67 -2,5 C -2,2 C 0,0 km/h (0 Bft)
30.11.2013 15:30 -1,5 C 93 % 1020,0 hPa 0,0 l/m 0,0 km/h (0 Bft) O-NO 67 -2,5 C -2,2 C 0,0 km/h (0 Bft)
30.11.2013 15:40 -1,7 C 93 % 1020,0 hPa 0,0 l/m 0,0 km/h (0 Bft) O-NO 67 -2,7 C -2,3 C 0,0 km/h (0 Bft)
30.11.2013 15:45 -2,2 C 93 % 1020,3 hPa 0,0 l/m 0,0 km/h (0 Bft) O 90 -3,2 C -2,7 C 0,0 km/h (0 Bft)
30.11.2013 15:51 -2,1 C 93 % 1020,3 hPa 0,0 l/m 0,0 km/h (0 Bft) O-NO 67 -3,1 C -2,7 C 0,0 km/h (0 Bft)
30.11.2013 15:55 -1,8 C 94 % 1020,3 hPa 0,0 l/m 0,0 km/h (0 Bft) O-NO 67 -2,6 C -2,5 C 0,0 km/h (0 Bft)
30.11.2013 16:02 -1,9 C 94 % 1020,3 hPa 0,0 l/m 0,0 km/h (0 Bft) O-NO 67 -2,7 C -2,5 C 0,0 km/h (0 Bft)
30.11.2013 16:05 -1,9 C 94 % 1020,3 hPa 0,0 l/m 0,0 km/h (0 Bft) NO 45 -2,7 C -2,6 C 0,0 km/h (0 Bft)
30.11.2013 16:13 -3,3 C 94 % 1020,3 hPa 0,0 l/m 0,0 km/h (0 Bft) NO 45 -4,1 C -3,5 C 0,0 km/h (0 Bft)
30.11.2013 16:15 -3,3 C 94 % 1020,3 hPa 0,0 l/m 0,0 km/h (0 Bft) NO 45 -4,1 C -3,5 C 0,0 km/h (0 Bft)
30.11.2013 16:24 -2,8 C 94 % 1020,9 hPa 0,0 l/m 0,0 km/h (0 Bft) O 90 -3,6 C -3,7 C 0,0 km/h (0 Bft)
30.11.2013 16:25 -2,8 C 94 % 1020,9 hPa 0,0 l/m 0,0 km/h (0 Bft) O 90 -3,6 C -3,7 C 0,0 km/h (0 Bft)
30.11.2013 16:35 -2,1 C 94 % 1020,9 hPa 0,0 l/m 0,0 km/h (0 Bft) NO 45 -2,9 C -3,2 C 0,0 km/h (0 Bft)
30.11.2013 16:40 -2,3 C 94 % 1020,9 hPa 0,0 l/m 0,0 km/h (0 Bft) O 90 -3,1 C -3,0 C 0,0 km/h (0 Bft)
30.11.2013 16:46 -3,3 C 94 % 1021,3 hPa 0,0 l/m 0,0 km/h (0 Bft) NO 45 -4,1 C -3,3 C 0,0 km/h (0 Bft)
30.11.2013 16:50 -3,9 C 94 % 1021,3 hPa 0,0 l/m 0,0 km/h (0 Bft) NO 45 -4,7 C -3,6 C 0,0 km/h (0 Bft)
30.11.2013 16:57 -4,1 C 94 % 1021,3 hPa 0,0 l/m 0,0 km/h (0 Bft) NO 45 -4,9 C -4,0 C 0,0 km/h (0 Bft)
30.11.2013 17:00 -3,8 C 94 % 1021,3 hPa 0,0 l/m 0,0 km/h (0 Bft) O 90 -4,6 C -4,2 C 0,0 km/h (0 Bft)
30.11.2013 17:07 -3,5 C 94 % 1021,8 hPa 0,0 l/m 0,0 km/h (0 Bft) NO 45 -4,3 C -3,9 C 0,0 km/h (0 Bft)
30.11.2013 17:10 -3,5 C 94 % 1021,8 hPa 0,0 l/m 0,0 km/h (0 Bft) NO 45 -4,3 C -3,9 C 0,0 km/h (0 Bft)
30.11.2013 17:18 -3,6 C 94 % 1021,8 hPa 0,0 l/m 0,0 km/h (0 Bft) NO 45 -4,4 C -3,8 C 0,0 km/h (0 Bft)
30.11.2013 17:20 -3,6 C 94 % 1021,8 hPa 0,0 l/m 0,0 km/h (0 Bft) NO 45 -4,4 C -3,8 C 0,0 km/h (0 Bft)
30.11.2013 17:29 -3,3 C 94 % 1022,0 hPa 0,0 l/m 0,0 km/h (0 Bft) O-NO 67 -4,1 C -3,6 C 0,0 km/h (0 Bft)
30.11.2013 17:30 -3,3 C 94 % 1022,0 hPa 0,0 l/m 0,0 km/h (0 Bft) O-NO 67 -4,1 C -3,6 C 0,0 km/h (0 Bft)
30.11.2013 17:40 -2,8 C 94 % 1022,0 hPa 0,0 l/m 0,0 km/h (0 Bft) NO 45 -3,6 C -3,2 C 0,0 km/h (0 Bft)
30.11.2013 17:45 -2,9 C 94 % 1022,2 hPa 0,0 l/m 0,0 km/h (0 Bft) NO 45 -3,7 C -2,9 C 0,0 km/h (0 Bft)
30.11.2013 17:51 -2,6 C 95 % 1022,2 hPa 0,0 l/m 0,0 km/h (0 Bft) O-SO 112 -3,3 C -2,7 C 0,0 km/h (0 Bft)
30.11.2013 17:55 -1,9 C 95 % 1022,2 hPa 0,0 l/m 0,0 km/h (0 Bft) O 90 -2,6 C -2,4 C 0,0 km/h (0 Bft)
30.11.2013 18:02 -1,7 C 95 % 1022,5 hPa 0,0 l/m 0,0 km/h (0 Bft) O 90 -2,4 C -1,9 C 0,0 km/h (0 Bft)
30.11.2013 18:05 -1,7 C 95 % 1022,5 hPa 0,0 l/m 0,0 km/h (0 Bft) O 90 -2,4 C -1,9 C 0,0 km/h (0 Bft)
30.11.2013 18:13 -2,5 C 95 % 1022,5 hPa 0,0 l/m 0,0 km/h (0 Bft) NO 45 -3,2 C -2,0 C 0,0 km/h (0 Bft)
30.11.2013 18:15 -2,5 C 95 % 1022,5 hPa 0,0 l/m 0,0 km/h (0 Bft) NO 45 -3,2 C -2,0 C 0,0 km/h (0 Bft)
30.11.2013 18:24 -1,8 C 95 % 1022,8 hPa 0,0 l/m 0,0 km/h (0 Bft) O-NO 67 -2,5 C -2,2 C 0,0 km/h (0 Bft)
30.11.2013 18:25 -1,8 C 95 % 1022,8 hPa 0,0 l/m 0,0 km/h (0 Bft) O-NO 67 -2,5 C -2,2 C 0,0 km/h (0 Bft)
30.11.2013 18:35 -1,6 C 95 % 1022,8 hPa 0,0 l/m 0,0 km/h (0 Bft) NO 45 -2,3 C -1,6 C 0,0 km/h (0 Bft)
30.11.2013 18:40 -1,7 C 95 % 1022,8 hPa 0,0 l/m 0,0 km/h (0 Bft) O 90 -2,4 C -1,5 C 0,0 km/h (0 Bft)
30.11.2013 18:46 -1,7 C 95 % 1022,9 hPa 0,0 l/m 0,0 km/h (0 Bft) O-NO 67 -2,4 C -1,7 C 0,0 km/h (0 Bft)
30.11.2013 18:50 -1,7 C 95 % 1022,9 hPa 0,0 l/m 0,0 km/h (0 Bft) O 90 -2,4 C -1,8 C 0,0 km/h (0 Bft)
30.11.2013 18:57 -2,0 C 95 % 1022,9 hPa 0,0 l/m 0,0 km/h (0 Bft) NO 45 -2,7 C -1,9 C 0,0 km/h (0 Bft)
30.11.2013 19:00 -2,0 C 95 % 1022,9 hPa 0,0 l/m 0,0 km/h (0 Bft) NO 45 -2,7 C -1,9 C 0,0 km/h (0 Bft)
30.11.2013 19:08 -1,7 C 95 % 1023,2 hPa 0,0 l/m 0,0 km/h (0 Bft) O 90 -2,4 C -1,8 C 0,0 km/h (0 Bft)
30.11.2013 19:10 -1,7 C 95 % 1023,2 hPa 0,0 l/m 0,0 km/h (0 Bft) O 90 -2,4 C -1,8 C 0,0 km/h (0 Bft)
30.11.2013 19:19 -1,7 C 95 % 1023,2 hPa 0,0 l/m 0,0 km/h (0 Bft) NO 45 -2,4 C -1,7 C 0,0 km/h (0 Bft)
30.11.2013 19:20 -1,7 C 95 % 1023,2 hPa 0,0 l/m 0,0 km/h (0 Bft) NO 45 -2,4 C -1,7 C 0,0 km/h (0 Bft)
30.11.2013 19:30 -1,9 C 95 % 1023,4 hPa 0,0 l/m 0,0 km/h (0 Bft) N 360 -2,6 C -1,7 C 0,0 km/h (0 Bft)
30.11.2013 19:35 -1,8 C 95 % 1023,4 hPa 0,0 l/m 0,0 km/h (0 Bft) O-NO 67 -2,5 C -1,7 C 0,0 km/h (0 Bft)
30.11.2013 19:41 -1,9 C 95 % 1023,4 hPa 0,0 l/m 0,0 km/h (0 Bft) NO 45 -2,6 C -1,7 C 0,0 km/h (0 Bft)
30.11.2013 19:45 -1,8 C 95 % 1023,2 hPa 0,0 l/m 0,0 km/h (0 Bft) N-NO 22 -2,5 C -1,7 C 0,0 km/h (0 Bft)
30.11.2013 19:52 -2,0 C 95 % 1023,2 hPa 0,0 l/m 0,0 km/h (0 Bft) O-SO 112 -2,7 C -1,8 C 0,0 km/h (0 Bft)
30.11.2013 19:55 -2,0 C 95 % 1023,2 hPa 0,0 l/m 0,0 km/h (0 Bft) O-SO 112 -2,7 C -1,8 C 0,0 km/h (0 Bft)
30.11.2013 20:03 -2,0 C 95 % 1023,5 hPa 0,0 l/m 0,0 km/h (0 Bft) O-SO 112 -2,7 C -2,0 C 0,0 km/h (0 Bft)
30.11.2013 20:05 -2,0 C 95 % 1023,5 hPa 0,0 l/m 0,0 km/h (0 Bft) O-SO 112 -2,7 C -2,0 C 0,0 km/h (0 Bft)
30.11.2013 20:14 -2,0 C 96 % 1023,5 hPa 0,0 l/m 0,0 km/h (0 Bft) NO 45 -2,6 C -2,0 C 0,0 km/h (0 Bft)
30.11.2013 20:15 -2,0 C 96 % 1023,5 hPa 0,0 l/m 0,0 km/h (0 Bft) NO 45 -2,6 C -2,0 C 0,0 km/h (0 Bft)
30.11.2013 20:25 -2,0 C 96 % 1023,6 hPa 0,0 l/m 0,0 km/h (0 Bft) NO 45 -2,6 C -2,0 C 0,0 km/h (0 Bft)
30.11.2013 20:30 -2,2 C 95 % 1023,6 hPa 0,0 l/m 0,0 km/h (0 Bft) NO 45 -2,9 C -2,0 C 0,0 km/h (0 Bft)
30.11.2013 20:36 -2,1 C 95 % 1023,6 hPa 0,0 l/m 0,0 km/h (0 Bft) O 90 -2,8 C -2,2 C 0,0 km/h (0 Bft)
30.11.2013 20:40 -2,2 C 95 % 1023,6 hPa 0,0 l/m 0,0 km/h (0 Bft) O 90 -2,9 C -2,2 C 0,0 km/h (0 Bft)
30.11.2013 20:47 -2,1 C 95 % 1023,8 hPa 0,0 l/m 0,0 km/h (0 Bft) NO 45 -2,8 C -2,2 C 0,0 km/h (0 Bft)
30.11.2013 20:50 -2,2 C 95 % 1023,8 hPa 0,0 l/m 0,0 km/h (0 Bft) NO 45 -2,9 C -2,2 C 0,0 km/h (0 Bft)
30.11.2013 20:58 -1,9 C 96 % 1023,8 hPa 0,0 l/m 0,0 km/h (0 Bft) O 90 -2,5 C -2,1 C 0,0 km/h (0 Bft)
30.11.2013 21:00 -1,9 C 96 % 1023,8 hPa 0,0 l/m 0,0 km/h (0 Bft) O 90 -2,5 C -2,1 C 0,0 km/h (0 Bft)
30.11.2013 21:09 -1,9 C 96 % 1024,0 hPa 0,0 l/m 0,0 km/h (0 Bft) O-SO 112 -2,5 C -1,8 C 0,0 km/h (0 Bft)
30.11.2013 21:10 -1,9 C 96 % 1024,0 hPa 0,0 l/m 0,0 km/h (0 Bft) O-SO 112 -2,5 C -1,8 C 0,0 km/h (0 Bft)
30.11.2013 21:20 -1,9 C 96 % 1024,0 hPa 0,0 l/m 0,0 km/h (0 Bft) NO 45 -2,5 C -1,8 C 0,0 km/h (0 Bft)
30.11.2013 21:25 -1,9 C 96 % 1024,1 hPa 0,0 l/m 0,0 km/h (0 Bft) N-NO 22 -2,5 C -1,8 C 0,0 km/h (0 Bft)
30.11.2013 21:31 -1,9 C 96 % 1024,1 hPa 0,0 l/m 0,0 km/h (0 Bft) NO 45 -2,5 C -1,9 C 0,0 km/h (0 Bft)
30.11.2013 21:35 -1,9 C 96 % 1024,1 hPa 0,0 l/m 0,0 km/h (0 Bft) N-NO 22 -2,5 C -1,9 C 0,0 km/h (0 Bft)
30.11.2013 21:42 -2,0 C 96 % 1024,1 hPa 0,0 l/m 0,0 km/h (0 Bft) NO 45 -2,6 C -1,9 C 0,0 km/h (0 Bft)
30.11.2013 21:45 -1,9 C 96 % 1024,2 hPa 0,0 l/m 0,0 km/h (0 Bft) NO 45 -2,5 C -1,9 C 0,0 km/h (0 Bft)
30.11.2013 21:53 -1,9 C 96 % 1024,2 hPa 0,0 l/m 0,0 km/h (0 Bft) N-NO 22 -2,5 C -1,9 C 0,0 km/h (0 Bft)
30.11.2013 21:55 -1,9 C 96 % 1024,2 hPa 0,0 l/m 0,0 km/h (0 Bft) N-NO 22 -2,5 C -1,9 C 0,0 km/h (0 Bft)
30.11.2013 22:04 -1,9 C 96 % 1024,2 hPa 0,0 l/m 0,0 km/h (0 Bft) N-NO 22 -2,5 C -1,9 C 0,0 km/h (0 Bft)
30.11.2013 22:05 -1,9 C 96 % 1024,2 hPa 0,0 l/m 0,0 km/h (0 Bft) N-NO 22 -2,5 C -1,9 C 0,0 km/h (0 Bft)
30.11.2013 22:14 -2,1 C 96 % 1024,2 hPa 0,0 l/m 0,0 km/h (0 Bft) O-SO 112 -2,6 C -2,0 C 0,0 km/h (0 Bft)
30.11.2013 22:15 -2,1 C 96 % 1024,2 hPa 0,0 l/m 0,0 km/h (0 Bft) O-SO 112 -2,6 C -2,0 C 0,0 km/h (0 Bft)
30.11.2013 22:25 -2,1 C 96 % 1024,6 hPa 0,0 l/m 0,0 km/h (0 Bft) W-NW 292 -2,6 C -2,0 C 0,0 km/h (0 Bft)
30.11.2013 22:30 -2,1 C 96 % 1024,6 hPa 0,0 l/m 0,0 km/h (0 Bft) N-NW 337 -2,6 C -2,0 C 0,0 km/h (0 Bft)
30.11.2013 22:36 -2,1 C 96 % 1024,6 hPa 0,0 l/m 0,0 km/h (0 Bft) N-NW 337 -2,6 C -2,1 C 0,0 km/h (0 Bft)
30.11.2013 22:40 -2,2 C 96 % 1024,6 hPa 0,0 l/m 0,0 km/h (0 Bft) S 180 -2,7 C -2,2 C 0,0 km/h (0 Bft)
30.11.2013 22:47 -2,3 C 96 % 1024,4 hPa 0,0 l/m 0,0 km/h (0 Bft) O-SO 112 -2,8 C -2,2 C 0,0 km/h (0 Bft)
30.11.2013 22:50 -2,3 C 96 % 1024,4 hPa 0,0 l/m 0,0 km/h (0 Bft) O-SO 112 -2,8 C -2,2 C 0,0 km/h (0 Bft)
30.11.2013 22:58 -2,3 C 95 % 1024,4 hPa 0,0 l/m 0,0 km/h (0 Bft) S 180 -3,0 C -2,3 C 0,0 km/h (0 Bft)
30.11.2013 23:00 -2,3 C 95 % 1024,4 hPa 0,0 l/m 0,0 km/h (0 Bft) S 180 -3,0 C -2,3 C 0,0 km/h (0 Bft)
30.11.2013 23:09 -2,4 C 95 % 1024,5 hPa 0,0 l/m 0,0 km/h (0 Bft) S 180 -3,1 C -2,3 C 0,0 km/h (0 Bft)
30.11.2013 23:10 -2,4 C 95 % 1024,5 hPa 0,0 l/m 0,0 km/h (0 Bft) S 180 -3,1 C -2,3 C 0,0 km/h (0 Bft)
30.11.2013 23:20 -2,3 C 95 % 1024,5 hPa 0,0 l/m 0,0 km/h (0 Bft) W-NW 292 -3,0 C -2,3 C 0,0 km/h (0 Bft)
30.11.2013 23:25 -2,4 C 95 % 1024,5 hPa 0,0 l/m 0,0 km/h (0 Bft) NW 315 -3,1 C -2,3 C 0,0 km/h (0 Bft)
30.11.2013 23:31 -2,4 C 95 % 1024,5 hPa 0,0 l/m 0,0 km/h (0 Bft) S-SW 202 -3,1 C -2,3 C 0,0 km/h (0 Bft)
30.11.2013 23:35 -2,7 C 95 % 1024,5 hPa 0,0 l/m 0,0 km/h (0 Bft) S-SW 202 -3,4 C -2,5 C 0,0 km/h (0 Bft)
30.11.2013 23:42 -2,8 C 95 % 1024,3 hPa 0,0 l/m 0,0 km/h (0 Bft) S-SW 202 -3,5 C -2,9 C 0,0 km/h (0 Bft)
30.11.2013 23:45 -2,8 C 95 % 1024,3 hPa 0,0 l/m 0,0 km/h (0 Bft) S-SW 202 -3,5 C -2,9 C 0,0 km/h (0 Bft)
30.11.2013 23:53 -3,4 C 95 % 1024,3 hPa 0,0 l/m 0,0 km/h (0 Bft) O-SO 112 -4,1 C -3,4 C 0,0 km/h (0 Bft)
30.11.2013 23:55 -3,4 C 95 % 1024,3 hPa 0,0 l/m 0,0 km/h (0 Bft) O-SO 112 -4,1 C -3,4 C 0,0 km/h (0 Bft)
_ Min-Zeit 16:57 00:45 03:15 - 23:55 - - 16:57 00:35 23:55
Minimum _ -4,1 C 81 % 1014,5 hPa - 0,0 km/h (0 Bft) - - -4,9 C -4,4 C 0,0 km/h (0 Bft)
_ Max-Zeit 12:35 22:50 22:40 23:55 00:35 - - 12:15 14:35 00:45
Maximum _ 3,2 C 96 % 1024,6 hPa 0,0 l/m 9,0 km/h
SO (2 Bft)
- - 1,9 C 6,3 C 16,7 km/h
S (3 Bft)
Durchschnitt _ -0,5 C 93 % 1019,0 hPa #0,0 l/m 1,1 km/h (0 Bft) S - -1,4 C -0,6 C 1,3 km/h (1 Bft)